DW9433 Weather Reports


Display with metric or nautical units.
time (UTC)temp
F
wind
direction
speed
MPH
gust
MPH
rain 1hr
in
rain 24hr
in
rain mn
in
humidity
%
barometer
mb
20260506133027 52 5 0.0 0.0 0.00 2.18 1.09 95 1013.0
20260506131527 52 360 0.0 0.0 0.00 2.18 1.09 95 1012.7
20260506130024 52 5 0.0 0.0 0.00 2.18 1.09 95 1012.4
20260506124523 52 27 0.0 0.0 0.00 2.18 1.09 95 1011.8
20260506123021 52 13 0.0 0.0 0.00 2.18 1.09 95 1011.5
20260506121522 52 12 0.0 0.0 0.00 2.18 1.09 95 1011.5
20260506120041 52 12 0.0 0.0 0.00 2.18 1.09 95 1011.0
20260506114520 52 15 0.0 0.0 0.05 2.18 1.09 95 1010.8
20260506113019 52 10 0.0 0.0 0.11 2.18 1.09 95 1011.0
20260506111517 52 19 0.0 0.0 0.16 2.18 1.09 95 1010.5
20260506110017 52 13 0.0 0.0 0.21 2.18 1.09 95 1010.5
20260506104527 52 24 0.0 3.0 0.21 2.13 1.04 95 1009.5
20260506103034 52 5 0.0 0.0 0.18 2.06 0.98 94 1010.6
20260506101513 52 28 0.0 0.0 0.15 2.02 0.93 94 1010.7
20260506100012 53 217 0.0 0.0 0.12 1.97 0.88 94 1010.0
20260506094513 53 217 0.0 0.0 0.07 1.92 0.83 94 1010.2
20260506093018 53 10 0.0 3.0 0.04 1.89 0.80 94 1009.0
20260506091508 53 15 0.0 2.0 0.22 1.87 0.78 94 1008.4
20260506090006 53 23 0.0 2.0 0.41 1.85 0.76 94 1009.3
20260506084506 53 43 0.0 4.0 0.46 1.85 0.76 94 1008.9
20260506083005 53 15 0.0 5.0 0.48 1.85 0.76 94 1007.6
20260506081503 53 71 0.0 0.0 0.30 1.65 0.56 93 1008.4
20260506080105 53 313 0.0 0.0 0.11 1.45 0.36 93 1008.8
20260506073057 54 310 0.0 0.0 0.17 1.37 0.28 91 1008.2
20260506071556 55 360 0.0 0.0 0.25 1.35 0.26 90 1007.7
20260506061535 67 73 0.0 5.0 0.01 1.10 0.01 82 1007.0
20260506044521 70 163 0.0 9.0 0.00 1.09 1.09 85 1005.8
20260506043020 70 164 0.0 0.0 0.00 1.09 1.09 85 1006.5
20260506041519 70 259 0.0 3.0 0.00 1.09 1.09 85 1006.3
20260506040018 70 132 0.0 5.0 0.00 1.09 1.09 85 1006.5
20260506034518 70 167 0.0 4.0 0.00 1.09 1.09 85 1006.9
20260506033017 70 198 0.0 1.0 0.00 1.09 1.09 85 1006.7
20260506031517 70 168 0.0 0.0 0.00 1.09 1.09 85 1006.8
20260506030016 70 184 0.0 4.0 0.00 1.09 1.09 85 1006.8
20260506024516 70 154 0.0 2.0 0.00 1.09 1.09 85 1006.9
20260506023025 70 149 0.0 5.0 0.00 1.09 1.09 86 1007.0
20260506021521 70 132 0.0 3.0 0.00 1.09 1.09 87 1006.7
20260506020014 70 157 0.0 4.0 0.00 1.09 1.09 87 1006.7
20260506014515 70 159 0.0 0.0 0.00 1.09 1.09 88 1006.5
20260506013015 70 183 0.0 3.0 0.00 1.09 1.09 88 1006.5
20260506011512 70 156 1.0 5.0 0.00 1.09 1.09 88 1006.4
20260506010014 70 213 0.0 5.0 0.00 1.09 1.09 89 1006.3
20260506004512 69 167 0.0 5.0 0.00 1.09 1.09 89 1005.9
20260506003013 69 146 0.0 0.0 0.00 1.09 1.09 90 1006.3
20260506001508 69 138 0.0 0.0 0.00 1.09 1.09 90 1006.3
20260506000007 69 134 0.0 0.0 0.00 1.09 1.09 90 1006.0
20260505234505 69 161 0.0 5.0 0.00 1.09 1.09 91 1006.1
20260505233004 68 189 0.0 0.0 0.00 1.09 1.09 91 1006.5
20260505231503 68 170 0.0 1.0 0.00 1.09 1.09 91 1006.3
20260505230003 68 167 0.0 3.0 0.00 1.09 1.09 91 1006.4
20260505224502 68 192 0.0 0.0 0.00 1.09 1.09 92 1006.4
20260505223002 67 184 0.0 4.0 0.00 1.09 1.09 92 1006.4
20260505221604 67 130 0.0 2.0 0.00 1.09 1.09 93 1006.2
20260505214559 66 126 0.0 0.0 0.01 1.09 1.09 94 1006.8
20260505213054 66 165 0.0 3.0 0.01 1.09 1.09 93 1007.0
20260505211553 66 152 0.0 0.0 0.01 1.09 1.09 94 1007.2
20260505210051 65 170 0.0 0.0 0.00 1.08 1.08 93 1007.2
20260505204550 65 172 0.0 0.0 0.00 1.08 1.08 93 1007.3
20260505203107 65 161 0.0 4.0 0.00 1.08 1.08 93 1007.3
20260505201557 65 153 0.0 7.0 0.00 1.08 1.08 92 1007.5
20260505200053 65 161 0.0 6.0 0.00 1.08 1.08 92 1007.7
20260505194549 65 170 0.0 0.0 0.00 1.08 1.08 92 1007.6
20260505193049 65 142 0.0 5.0 0.00 1.08 1.08 93 1007.7
20260505191559 64 192 0.0 4.0 0.00 1.08 1.08 94 1007.8
20260505190050 64 173 0.0 5.0 0.00 1.08 1.08 94 1007.8
20260505184547 63 173 0.0 4.0 0.00 1.08 1.08 94 1008.0
20260505183047 63 160 0.0 5.0 0.00 1.08 1.08 94 1008.1
20260505181547 63 163 0.0 4.0 0.00 1.08 1.08 94 1008.3
20260505180049 62 137 0.0 6.0 0.00 1.08 1.08 94 1008.4
20260505174546 62 153 0.0 3.0 0.00 1.08 1.08 94 1008.6
20260505173044 62 184 0.0 4.0 0.01 1.08 1.08 95 1008.4
20260505171547 61 181 0.0 2.0 0.05 1.08 1.08 95 1008.6
20260505164544 60 133 0.0 7.0 0.21 1.08 1.08 94 1009.0
20260505163044 60 161 0.0 6.0 0.43 1.07 1.07 95 1009.6
20260505161541 60 151 0.0 5.0 0.46 1.03 1.03 94 1009.4
20260505153041 59 184 0.0 0.0 0.33 0.63 0.63 93 1010.6
20260505151554 59 175 0.0 4.0 0.39 0.56 0.56 93 1009.9